Nurnberg, Germany

9:49 AM CEST on June 24, 2017 (GMT +0200)
Nurnberg

Weather History for EDDN - March, 2013

Change the Weather History Date:

Friday, March 29, 2013

  Actual Average Record
Temperature  
Mean Temperature 35 °F -  
Max Temperature 39 °F 56 °F 66 °F (1998)
Min Temperature 31 °F 37 °F 24 °F (2004)
Degree Days  
Heating Degree Days 30    
Moisture  
Dew Point 29 °F    
Average Humidity 77    
Maximum Humidity 93    
Minimum Humidity 44    
Precipitation  
Precipitation 0.00 in 0.06 in - ()
Sea Level Pressure  
Sea Level Pressure 29.71 in    
Wind  
Wind Speed 6 mph ()    
Max Wind Speed 15 mph    
Max Gust Speed -    
Visibility 5.0 miles    
Events Rain , Snow    
Averages and records for this station are not official NWS values.
T = Trace of Precipitation, MM = Missing Value Source: Averaged Metar Reports

Daily Weather History Graph

Daily Weather History Graph

Search for Another Location

Airport or City:

Trip Planner

Search our weather history database for the weather conditions in past years. The results will help you decide how hot, cold, wet, or windy it might be!

Date:

Astronomy

Mar. 29, 2013 Rise Set
Actual Time 5:59 AM CET 6:42 PM CET
Civil Twilight 5:26 AM CET 7:14 PM CET
Nautical Twilight 4:48 AM CET 7:53 PM CET
Astronomical Twilight 4:08 AM CET 8:34 PM CET
Moon 9:41 PM CET (3/29) 6:41 AM CET (3/29)
Length of Visible Light 13h 47m
Length of Day
12h 43m
Waning Gibbous, 95% of the Moon is Illuminated
Mar 29
Waning Gibbous
Apr 3
Last Quarter
Apr 10
New
Apr 18
First Quarter
Apr 25
Full

Hourly Weather History & Observations

Time (CET) Temp. Windchill Dew Point Humidity Pressure Visibility Wind Dir Wind Speed Gust Speed Precip Events Conditions
12:00 AM 37 °F - 35 °F 91% 29.71 in 5 mi South 6.7 mph - - Rain Light Rain
12:20 AM 37.4 °F 32.8 °F 35.6 °F 93% 29.65 in 5.0 mi South 5.8 mph - N/A   Mostly Cloudy
12:50 AM 37.4 °F 32.8 °F 35.6 °F 93% 29.65 in 5.0 mi SW 5.8 mph - N/A   Mostly Cloudy
1:00 AM 37 °F - 35 °F 90% 29.70 in 5 mi SW 4.5 mph - -   Partly Cloudy
1:20 AM 37.4 °F 32.1 °F 33.8 °F 87% 29.68 in 3.7 mi SSW 6.9 mph - N/A   Mostly Cloudy
1:50 AM 35.6 °F 31.7 °F 33.8 °F 93% 29.65 in 3.7 mi WSW 4.6 mph - N/A   Mostly Cloudy
2:00 AM 36 °F - 35 °F 92% 29.71 in 4 mi WSW 4.5 mph - -   Light Ice Pellets
2:20 AM 35.6 °F 32.8 °F 33.8 °F 93% 29.68 in 3.7 mi SW 3.5 mph - N/A   Mostly Cloudy
2:50 AM 35.6 °F 29.2 °F 33.8 °F 93% 29.68 in 3.7 mi WSW 8.1 mph - N/A   Mostly Cloudy
3:00 AM 36 °F - 34 °F 90% 29.71 in 4 mi WSW 6.7 mph - -   Light Ice Pellets
3:20 AM 35.6 °F 29.2 °F 33.8 °F 93% 29.68 in 3.7 mi West 8.1 mph - N/A   Mostly Cloudy
3:50 AM 35.6 °F 27.5 °F 32.0 °F 87% 29.68 in 3.7 mi West 11.5 mph - N/A   Mostly Cloudy
4:20 AM 33.8 °F 26.4 °F 30.2 °F 87% 29.68 in 5.0 mi West 9.2 mph - N/A Snow Light Snow
4:50 AM 33.8 °F 26.4 °F 30.2 °F 87% 29.68 in 5.6 mi West 9.2 mph - N/A   Unknown
5:00 AM 34 °F - 30 °F 80% 29.74 in 6 mi West 8.9 mph - - Snow Light Snow
5:20 AM 32.0 °F 22.1 °F 28.4 °F 87% 29.71 in 3.7 mi West 13.8 mph - N/A Snow Light Snow
5:50 AM 32.0 °F 24.2 °F 28.4 °F 87% 29.71 in 5.0 mi WSW 9.2 mph - N/A Snow Light Snow
6:00 AM 33 °F - 29 °F 81% 29.75 in 5 mi WSW 8.9 mph - - Snow Light Snow
6:20 AM 32.0 °F 23.6 °F 30.2 °F 93% 29.71 in 1.2 mi WSW 10.4 mph - N/A Snow Snow
6:50 AM 32.0 °F 23.6 °F 30.2 °F 93% 29.74 in 3.1 mi WSW 10.4 mph - N/A   Mostly Cloudy
7:00 AM 33 °F - 31 °F 89% 29.78 in 3 mi WSW 8.9 mph - - Snow Light Snow
7:20 AM 32.0 °F 21.6 °F 28.4 °F 87% 29.74 in 5.6 mi West 15.0 mph - N/A Snow Light Snow
7:50 AM 33.8 °F 24.3 °F 28.4 °F 81% 29.74 in 3.1 mi West 13.8 mph - N/A   Mostly Cloudy
8:20 AM 33.8 °F 24.8 °F 30.2 °F 87% 29.74 in 3.1 mi West 12.7 mph - N/A Snow Light Snow
8:50 AM 32.0 °F 24.2 °F 30.2 °F 93% 29.74 in 1.9 mi WNW 9.2 mph - N/A Snow Light Snow
9:00 AM 33 °F - 31 °F 89% 29.80 in 2 mi WNW 8.9 mph - - Snow Light Snow
9:20 AM 33.8 °F 25.3 °F 28.4 °F 81% 29.74 in 3.1 mi West 11.5 mph - N/A   Mostly Cloudy
9:50 AM 35.6 °F 28.6 °F 28.4 °F 75% 29.74 in 5.6 mi West 9.2 mph - N/A   Mostly Cloudy
10:20 AM 35.6 °F 26.6 °F 24.8 °F 65% 29.74 in 5.6 mi West 13.8 mph - N/A   Mostly Cloudy
10:50 AM 35.6 °F 28.0 °F 28.4 °F 75% 29.74 in 5.0 mi West 10.4 mph - N/A   Mostly Cloudy
11:00 AM 36 °F - 27 °F 61% 29.78 in 5 mi WSW 8.9 mph - - Snow Light Snow
11:20 AM 33.8 °F 25.3 °F 26.6 °F 75% 29.74 in 5.6 mi West 11.5 mph - N/A Snow Light Snow
11:50 AM 33.8 °F 27.0 °F 28.4 °F 81% 29.74 in 5.6 mi West 8.1 mph - N/A Snow Light Snow Grains
12:00 PM 34 °F - 28 °F 70% 29.78 in 6 mi SW 6.7 mph - - Snow Snow Grains
12:20 PM 35.6 °F 30.7 °F 28.4 °F 75% 29.74 in 5.6 mi WSW 5.8 mph - N/A   Mostly Cloudy
12:50 PM 37.4 °F 32.8 °F 24.8 °F 60% 29.71 in 5.6 mi SW 5.8 mph - N/A   Mostly Cloudy
1:00 PM 38 °F - 24 °F 44% 29.77 in 6 mi SW 6.7 mph - - Rain Light Drizzle
1:20 PM 37.4 °F 32.8 °F 26.6 °F 65% 29.71 in 5.6 mi SW 5.8 mph - N/A   Mostly Cloudy
1:50 PM 39.2 °F 33.0 °F 26.6 °F 61% 29.71 in 5.6 mi SSW 9.2 mph - N/A   Scattered Clouds
2:00 PM 39 °F - 26 °F 49% 29.76 in 6 mi SSW 6.7 mph - -   Mostly Cloudy
2:20 PM 37.4 °F 32.1 °F 24.8 °F 60% 29.71 in 5.6 mi WSW 6.9 mph - N/A   Scattered Clouds
2:50 PM 37.4 °F 32.8 °F 24.8 °F 60% 29.68 in 6.2 mi West 5.8 mph - N/A   Scattered Clouds
3:00 PM 38 °F - 25 °F 47% 29.74 in 7 mi West 6.7 mph - -   Mostly Cloudy
3:20 PM 39.2 °F 37.0 °F 26.6 °F 61% 29.68 in 6.2 mi West 3.5 mph - N/A   Scattered Clouds
3:50 PM 37.4 °F 33.8 °F 26.6 °F 65% 29.68 in 6.2 mi West 4.6 mph - N/A   Scattered Clouds
4:20 PM 37.4 °F 34.9 °F 26.6 °F 65% 29.68 in 6.2 mi NNW 3.5 mph - N/A   Scattered Clouds
4:50 PM 39.2 °F 35.9 °F 26.6 °F 61% 29.68 in 6.2 mi NW 4.6 mph - N/A   Scattered Clouds
5:00 PM 38 °F - 27 °F 52% 29.73 in 7 mi NW 4.5 mph - -   Mostly Cloudy
5:20 PM 37.4 °F 34.9 °F 26.6 °F 65% 29.68 in 5.6 mi Variable 3.5 mph - N/A   Mostly Cloudy
5:50 PM 37.4 °F 34.9 °F 26.6 °F 65% 29.68 in 5.6 mi WNW 3.5 mph - N/A   Mostly Cloudy
6:00 PM 38 °F - 26 °F 51% 29.73 in 6 mi WNW 4.5 mph - -   Mostly Cloudy
6:20 PM 37.4 °F - 28.4 °F 70% 29.68 in 5.6 mi NW 1.2 mph - N/A   Mostly Cloudy
6:50 PM 37.4 °F - 28.4 °F 70% 29.68 in 5.0 mi North 2.3 mph - N/A   Mostly Cloudy
7:00 PM 37 °F - 28 °F 60% 29.74 in 5 mi NNE 4.5 mph - -   Partly Cloudy
7:20 PM 35.6 °F - 28.4 °F 75% 29.68 in 5.0 mi North 1.2 mph - N/A   Mostly Cloudy
7:50 PM 35.6 °F - 28.4 °F 75% 29.71 in 5.0 mi North 2.3 mph - N/A   Mostly Cloudy
8:00 PM 35 °F - 29 °F 70% 29.75 in 5 mi NNE 4.5 mph - -   Overcast
8:20 PM 35.6 °F - 28.4 °F 75% 29.68 in 5.6 mi North 2.3 mph - N/A   Mostly Cloudy
8:50 PM 33.8 °F - 28.4 °F 81% 29.68 in 5.6 mi NNE 2.3 mph - N/A   Mostly Cloudy
9:00 PM 35 °F - 28 °F 68% 29.75 in 6 mi NE 4.5 mph - -   Overcast
9:20 PM 33.8 °F - 28.4 °F 81% 29.68 in - NE 2.3 mph - N/A   Clear
9:50 PM 32.0 °F - 28.4 °F 87% 29.68 in - Variable 2.3 mph - N/A   Clear
10:20 PM 32.0 °F - 28.4 °F 87% 29.68 in 5.6 mi ESE 2.3 mph - N/A   Unknown
10:50 PM 32.0 °F - 28.4 °F 87% 29.68 in 5.6 mi NNE 1.2 mph - N/A   Unknown
11:00 PM 32 °F - 28 °F 80% 29.75 in 6 mi East 2.2 mph - -   Overcast
11:20 PM 32.0 °F - 28.4 °F 87% 29.68 in 5.6 mi Variable 1.2 mph - N/A   Unknown
11:50 PM 32.0 °F 28.7 °F 28.4 °F 87% 29.68 in 5.6 mi ESE 3.5 mph - N/A   Unknown